Munising, MI

2:23 PM EST on January 16, 2017 (GMT -0500)
Munising

Weather History for KP53 - March, 2013

Change the Weather History Date:

Thursday, March 21, 2013

  Actual Average (KISQ) Record (KISQ)
Temperature  
Mean Temperature 26 °F -  
Max Temperature 27 °F 35 °F 59 °F (2012)
Min Temperature 24 °F 20 °F -10 °F (1965)
Degree Days  
Heating Degree Days 40    
Moisture  
Dew Point 17 °F    
Average Humidity 72    
Maximum Humidity 85    
Minimum Humidity 66    
Precipitation  
Precipitation 0.10 in - - ()
Sea Level Pressure  
Sea Level Pressure 29.94 in    
Wind  
Wind Speed 18 mph (NNW)    
Max Wind Speed 22 mph    
Max Gust Speed 26 mph    
Averages and records for this station are not official NWS values.
T = Trace of Precipitation, MM = Missing Value Source: NWS Daily Summary

Daily Weather History Graph

Daily Weather History Graph

Search for Another Location

Airport or City:

Trip Planner

Search our weather history database for the weather conditions in past years. The results will help you decide how hot, cold, wet, or windy it might be!

Date:

Astronomy

Mar. 21, 2013 Rise Set
Actual Time 7:47 AM EDT 8:00 PM EDT
Civil Twilight 7:17 AM EDT 8:31 PM EDT
Nautical Twilight 6:41 AM EDT 9:06 PM EDT
Astronomical Twilight 6:05 AM EDT 9:43 PM EDT
Moon 2:13 PM EDT (3/21) 4:25 AM EDT (3/21)
Length of Visible Light 13h 13m
Length of Day
12h 13m
Waxing Gibbous, 68% of the Moon is Illuminated
Mar 21
Waxing Gibbous
Mar 27
Full
Apr 3
Last Quarter
Apr 10
New
Apr 18
First Quarter

Hourly Weather History & Observations

Time (EDT) Temp. Windchill Dew Point Humidity Pressure Visibility Wind Dir Wind Speed Gust Speed Precip Events Conditions
12:56 AM 27.0 °F 13.9 °F 23.0 °F 85% 29.89 in - NNW 18.4 mph 26.5 mph 0.08 in   Unknown
1:56 AM 27.0 °F 12.8 °F 19.9 °F 75% 29.89 in - North 21.9 mph - 0.02 in   Unknown
2:56 AM 27.0 °F 12.8 °F 19.9 °F 75% 29.90 in - North 21.9 mph - N/A   Unknown
3:56 AM 26.1 °F 13.6 °F 18.0 °F 71% 29.90 in - North 16.1 mph - N/A   Unknown
4:56 AM 26.1 °F 14.5 °F 18.0 °F 71% 29.90 in - North 13.8 mph - N/A   Unknown
5:56 AM 26.1 °F 12.3 °F 17.1 °F 69% 29.90 in - North 19.6 mph 25.3 mph N/A   Unknown
6:56 AM 25.0 °F 11.3 °F 17.1 °F 72% 29.91 in - North 18.4 mph 26.5 mph N/A   Unknown
7:56 AM 25.0 °F 12.6 °F 17.1 °F 72% 29.91 in - North 15.0 mph - N/A   Unknown
8:56 AM 24.1 °F 9.8 °F 17.1 °F 75% 29.92 in - North 19.6 mph - N/A   Unknown
9:56 AM 25.0 °F 10.2 °F 16.0 °F 69% 29.93 in - North 21.9 mph 26.5 mph N/A   Unknown
10:56 AM 25.0 °F 11.7 °F 17.1 °F 72% 29.94 in - North 17.3 mph - N/A   Unknown
12:56 PM 25.0 °F 12.2 °F 17.1 °F 72% 29.95 in - NNW 16.1 mph 24.2 mph N/A   Unknown
1:56 PM 25.0 °F 12.6 °F 16.0 °F 69% 29.96 in - NNW 15.0 mph - N/A   Unknown
2:56 PM 25.0 °F 13.6 °F 17.1 °F 72% 29.96 in - North 12.7 mph - N/A   Unknown
3:56 PM 24.1 °F 10.1 °F 17.1 °F 75% 29.97 in - NNW 18.4 mph 24.2 mph N/A   Unknown
4:56 PM 24.1 °F 10.6 °F 16.0 °F 71% 29.98 in - NNW 17.3 mph 24.2 mph N/A   Unknown
5:56 PM 24.1 °F 11.0 °F 16.0 °F 71% 29.98 in - NNW 16.1 mph 23.0 mph N/A   Unknown
6:56 PM 24.1 °F 11.5 °F 15.1 °F 69% 29.99 in - NNW 15.0 mph 20.7 mph N/A   Unknown
7:56 PM 24.1 °F 12.0 °F 15.1 °F 69% 29.99 in - NNW 13.8 mph - N/A   Unknown
8:56 PM 24.1 °F 11.0 °F 15.1 °F 69% 29.99 in - NNW 16.1 mph 24.2 mph N/A   Unknown
9:56 PM 24.1 °F 11.0 °F 15.1 °F 69% 29.99 in - North 16.1 mph 21.9 mph N/A   Unknown
10:56 PM 25.0 °F 14.2 °F 15.1 °F 66% 29.99 in - NNW 11.5 mph 19.6 mph N/A   Unknown
11:56 PM 27.0 °F 16.7 °F 18.0 °F 69% 29.98 in - NNW 11.5 mph - N/A   Unknown